QPF
0.01 0.01 0.01 0.01 0.02 0.02 0.00 0.00 0.00 0.00 0.00 0.00 0.00 0.00 0.00 0.01 0.01 0.01 0.03 0.01 0.00 0.00 0.00 0.01 0.01 0.01 0.00 0.01 0.01 0.01 0.01 0.01 0.01 0.01 0.01 0.02 0.01 0.01 0.01 0.02 0.02 0.02 0.01 0.01 0.01 0.02 0.02 0.02 0.04
0.01 0.01 0.01 0.02 0.02 0.00 0.01 0.00 0.00 0.00 0.00 0.00 0.01 0.01 0.00 0.00 0.00 0.00 0.01 0.01 0.00 0.00 0.00 0.00 0.00 0.00 0.00 0.01 0.01 0.01 0.01 0.01 0.01 0.01 0.01 0.01 0.01 0.02 0.02 0.02 0.02 0.02 0.02 0.02 0.02 0.02 0.02 0.02 0.04
0.01 0.01 0.01 0.03 0.01 0.00 0.01 0.01 0.01 0.00 0.00 0.00 0.00 0.01 0.00 0.00 0.00 0.00 0.00 0.00 0.00 0.00 0.00 0.00 0.00 0.00 0.00 0.01 0.01 0.01 0.01 0.01 0.01 0.01 0.01 0.01 0.01 0.02 0.01 0.03 0.02 0.02 0.02 0.02 0.02 0.02 0.01 0.02 0.04
0.02 0.01 0.02 0.02 0.01 0.00 0.00 0.00 0.00 0.00 0.00 0.00 0.00 0.00 0.00 0.00 0.00 0.00 0.00 0.00 0.00 0.00 0.00 0.00 0.00 0.00 0.00 0.00 0.01 0.00 0.01 0.01 0.01 0.01 0.01 0.01 0.01 0.01 0.02 0.04 0.04 0.03 0.02 0.02 0.02 0.02 0.02 0.03 0.03
0.01 0.01 0.01 0.01 0.01 0.01 0.00 0.00 0.00 0.00 0.00 0.00 0.00 0.00 0.00 0.00 0.00 0.00 0.01 0.01 0.00 0.00 0.00 0.00 0.00 0.00 0.01 0.00 0.00 0.00 0.01 0.00 0.00 0.00 0.01 0.01 0.01 0.02 0.03 0.05 0.04 0.01 0.01 0.02 0.02 0.03 0.04 0.03 0.03
0.02 0.02 0.04 0.02 0.01 0.01 0.01 0.00 0.00 0.01 0.01 0.01 0.01 0.01 0.01 0.01 0.00 0.00 0.01 0.01 0.00 0.00 0.00 0.00 0.00 0.00 0.00 0.00 0.00 0.00 0.00 0.00 0.00 0.00 0.00 0.01 0.01 0.01 0.02 0.03 0.02 0.01 0.01 0.01 0.01 0.02 0.02 0.02 0.02
0.02 0.03 0.06 0.04 0.01 0.01 0.01 0.00 0.00 0.00 0.00 0.01 0.02 0.01 0.01 0.01 0.00 0.00 0.01 0.01 0.00 0.00 0.00 0.00 0.00 0.00 0.00 0.00 0.00 0.00 0.00 0.00 0.00 0.00 0.00 0.00 0.01 0.01 0.02 0.02 0.01 0.01 0.01 0.01 0.02 0.02 0.01 0.01 0.01
0.01 0.02 0.03 0.02 0.01 0.01 0.01 0.00 0.00 0.00 0.00 0.01 0.03 0.01 0.01 0.00 0.00 0.00 0.01 0.01 0.00 0.00 0.00 0.00 0.00 0.00 0.00 0.00 0.00 0.00 0.00 0.00 0.00 0.00 0.00 0.01 0.01 0.01 0.01 0.01 0.01 0.01 0.01 0.02 0.02 0.02 0.01 0.01 0.01
0.01 0.02 0.02 0.01 0.01 0.00 0.00 0.00 0.01 0.01 0.00 0.01 0.01 0.01 0.00 0.00 0.00 0.00 0.01 0.01 0.01 0.01 0.00 0.00 0.00 0.00 0.00 0.00 0.00 0.00 0.00 0.00 0.00 0.01 0.01 0.01 0.01 0.01 0.01 0.01 0.01 0.01 0.02 0.02 0.02 0.02 0.01 0.01 0.02
0.01 0.01 0.02 0.01 0.00 0.00 0.00 0.01 0.00 0.01 0.00 0.00 0.00 0.00 0.00 0.00 0.00 0.00 0.01 0.01 0.02 0.01 0.01 0.01 0.00 0.00 0.01 0.00 0.00 0.00 0.01 0.00 0.01 0.01 0.01 0.01 0.01 0.02 0.01 0.01 0.02 0.02 0.02 0.03 0.03 0.02 0.01 0.01 0.01
0.00 0.01 0.00 0.00 0.00 0.00 0.00 0.01 0.01 0.01 0.01 0.00 0.00 0.00 0.00 0.01 0.01 0.01 0.01 0.02 0.03 0.03 0.03 0.03 0.03 0.02 0.02 0.01 0.02 0.02 0.02 0.02 0.02 0.02 0.02 0.01 0.01 0.01 0.02 0.01 0.02 0.01 0.01 0.01 0.01 0.02 0.02 0.01 0.02
0.00 0.00 0.00 0.00 0.00 0.00 0.00 0.00 0.01 0.01 0.01 0.00 0.00 0.01 0.02 0.02 0.02 0.01 0.03 0.03 0.05 0.07 0.09 0.08 0.06 0.03 0.03 0.03 0.03 0.05 0.08 0.05 0.03 0.03 0.03 0.02 0.02 0.02 0.01 0.01 0.01 0.01 0.01 0.01 0.02 0.02 0.04 0.02 0.03
0.00 0.00 0.00 0.00 0.00 0.00 0.00 0.00 0.01 0.02 0.01 0.00 0.00 0.01 0.01 0.01 0.01 0.01 0.01 0.03 0.04 0.11 0.23 0.19 0.16 0.07 0.04 0.03 0.03 0.03 0.05 0.05 0.03 0.02 0.03 0.03 0.03 0.03 0.02 0.01 0.02 0.02 0.02 0.03 0.04 0.03 0.03 0.03 0.03
0.00 0.00 0.00 0.00 0.00 0.00 0.01 0.01 0.01 0.01 0.01 0.01 0.00 0.00 0.01 0.01 0.01 0.02 0.02 0.04 0.07 0.13 0.17 0.17 0.20 0.13 0.08 0.06 0.04 0.03 0.04 0.04 0.03 0.03 0.03 0.03 0.03 0.03 0.03 0.02 0.02 0.03 0.03 0.03 0.03 0.04 0.03 0.03 0.03
0.00 0.00 0.00 0.00 0.00 0.00 0.00 0.01 0.01 0.01 0.02 0.02 0.01 0.01 0.02 0.02 0.01 0.02 0.04 0.05 0.06 0.06 0.07 0.08 0.16 0.13 0.11 0.06 0.04 0.03 0.02 0.03 0.03 0.03 0.04 0.04 0.04 0.03 0.03 0.02 0.02 0.03 0.02 0.02 0.03 0.04 0.03 0.03 0.03
0.00 0.00 0.01 0.01 0.00 0.00 0.00 0.01 0.01 0.01 0.04 0.03 0.01 0.01 0.01 0.02 0.01 0.02 0.03 0.05 0.05 0.05 0.05 0.05 0.11 0.08 0.05 0.04 0.05 0.03 0.03 0.03 0.03 0.04 0.06 0.05 0.05 0.05 0.04 0.05 0.03 0.02 0.02 0.01 0.02 0.03 0.04 0.05 0.03
0.00 0.00 0.01 0.01 0.00 0.00 0.01 0.01 0.02 0.03 0.04 0.04 0.03 0.02 0.01 0.01 0.01 0.01 0.02 0.03 0.03 0.04 0.04 0.04 0.07 0.06 0.05 0.05 0.06 0.06 0.04 0.05 0.04 0.05 0.07 0.08 0.10 0.08 0.04 0.04 0.03 0.02 0.02 0.03 0.03 0.03 0.04 0.05 0.04
0.00 0.00 0.00 0.00 0.00 0.00 0.01 0.01 0.02 0.04 0.04 0.04 0.05 0.04 0.04 0.02 0.01 0.01 0.01 0.01 0.01 0.02 0.03 0.04 0.05 0.05 0.05 0.07 0.09 0.08 0.07 0.06 0.05 0.05 0.06 0.12 0.20 0.13 0.05 0.04 0.03 0.02 0.03 0.04 0.04 0.08 0.06 0.04 0.03
0.00 0.00 0.00 0.00 0.00 0.00 0.00 0.01 0.01 0.03 0.03 0.04 0.06 0.08 0.11 0.05 0.02 0.02 0.02 0.02 0.01 0.02 0.02 0.03 0.04 0.04 0.05 0.07 0.08 0.10 0.06 0.04 0.04 0.05 0.05 0.11 0.20 0.08 0.04 0.03 0.04 0.04 0.04 0.04 0.04 0.05 0.05 0.04 0.04
0.00 0.00 0.00 0.00 0.00 0.00 0.00 0.01 0.01 0.01 0.02 0.03 0.04 0.11 0.14 0.05 0.02 0.02 0.02 0.01 0.01 0.02 0.02 0.03 0.04 0.04 0.05 0.06 0.09 0.12 0.05 0.04 0.05 0.06 0.07 0.12 0.14 0.06 0.05 0.03 0.03 0.04 0.05 0.06 0.04 0.04 0.04 0.03 0.05
0.00 0.00 0.00 0.00 0.00 0.00 0.00 0.01 0.01 0.02 0.06 0.05 0.04 0.12 0.10 0.04 0.03 0.03 0.02 0.02 0.02 0.02 0.02 0.04 0.04 0.06 0.06 0.05 0.07 0.10 0.05 0.04 0.04 0.05 0.06 0.08 0.07 0.06 0.05 0.02 0.03 0.04 0.04 0.04 0.03 0.04 0.04 0.04 0.05
0.00 0.00 0.00 0.00 0.00 0.00 0.00 0.01 0.01 0.03 0.07 0.05 0.07 0.10 0.05 0.06 0.05 0.03 0.02 0.02 0.03 0.03 0.05 0.05 0.05 0.06 0.05 0.04 0.06 0.07 0.06 0.04 0.04 0.05 0.04 0.05 0.05 0.05 0.04 0.04 0.04 0.04 0.04 0.04 0.03 0.05 0.05 0.04 0.04
0.00 0.00 0.00 0.00 0.00 0.00 0.00 0.01 0.01 0.01 0.03 0.03 0.06 0.05 0.02 0.03 0.06 0.05 0.02 0.02 0.03 0.04 0.05 0.03 0.03 0.04 0.03 0.03 0.04 0.05 0.05 0.04 0.06 0.07 0.04 0.05 0.06 0.06 0.05 0.05 0.04 0.05 0.04 0.04 0.04 0.06 0.06 0.04 0.03
0.00 0.00 0.00 0.00 0.00 0.00 0.00 0.01 0.01 0.01 0.01 0.02 0.02 0.01 0.01 0.02 0.04 0.04 0.03 0.03 0.03 0.03 0.03 0.02 0.02 0.02 0.02 0.02 0.03 0.04 0.04 0.05 0.05 0.04 0.03 0.04 0.05 0.06 0.07 0.06 0.07 0.06 0.06 0.05 0.06 0.08 0.07 0.06 0.05
0.00 0.00 0.00 0.00 0.00 0.00 0.01 0.01 0.01 0.01 0.02 0.02 0.02 0.01 0.01 0.02 0.04 0.05 0.03 0.05 0.04 0.03 0.02 0.02 0.02 0.02 0.02 0.01 0.02 0.04 0.05 0.06 0.07 0.05 0.04 0.04 0.05 0.05 0.07 0.08 0.09 0.08 0.07 0.07 0.09 0.11 0.09 0.08 0.07
0.00 0.00 0.00 0.00 0.00 0.00 0.00 0.01 0.02 0.02 0.02 0.02 0.04 0.05 0.01 0.02 0.04 0.04 0.03 0.03 0.03 0.02 0.01 0.02 0.03 0.02 0.02 0.03 0.04 0.06 0.06 0.07 0.06 0.05 0.07 0.07 0.05 0.05 0.06 0.08 0.06 0.06 0.07 0.08 0.08 0.08 0.06 0.06 0.06
0.00 0.00 0.00 0.00 0.00 0.00 0.00 0.00 0.02 0.03 0.04 0.03 0.03 0.05 0.02 0.02 0.05 0.03 0.01 0.02 0.01 0.01 0.01 0.02 0.03 0.03 0.03 0.03 0.05 0.06 0.05 0.05 0.04 0.03 0.06 0.08 0.07 0.06 0.07 0.07 0.06 0.08 0.10 0.10 0.08 0.08 0.07 0.07 0.07
0.00 0.00 0.00 0.00 0.00 0.00 0.00 0.00 0.01 0.03 0.05 0.02 0.01 0.01 0.01 0.01 0.03 0.05 0.04 0.02 0.01 0.00 0.01 0.01 0.01 0.01 0.02 0.02 0.03 0.04 0.04 0.04 0.04 0.04 0.06 0.07 0.08 0.07 0.06 0.07 0.08 0.09 0.08 0.09 0.10 0.10 0.09 0.08 0.07
0.00 0.00 0.00 0.00 0.00 0.00 0.00 0.00 0.00 0.01 0.02 0.01 0.01 0.01 0.00 0.01 0.02 0.04 0.03 0.01 0.00 0.00 0.01 0.01 0.01 0.01 0.01 0.01 0.03 0.04 0.05 0.06 0.05 0.03 0.03 0.05 0.05 0.05 0.06 0.07 0.08 0.08 0.09 0.09 0.10 0.10 0.10 0.10 0.09
0.00 0.00 0.00 0.00 0.00 0.00 0.00 0.00 0.00 0.00 0.01 0.02 0.02 0.01 0.01 0.00 0.01 0.01 0.01 0.00 0.00 0.00 0.00 0.00 0.00 0.01 0.01 0.02 0.03 0.04 0.05 0.05 0.04 0.03 0.03 0.06 0.04 0.04 0.04 0.06 0.08 0.07 0.08 0.08 0.07 0.08 0.09 0.10 0.08
MSLP
1007.49 1008.59 1009.92 1011.27 1012.44 1013.27 1013.68 1013.69 1013.39 1012.97 1012.60 1012.44 1012.58 1013.00 1013.62 1014.30 1014.90 1015.30 1015.42 1015.29 1014.98 1014.60 1014.26 1014.07 1014.05 1014.19 1014.43 1014.68 1014.88 1014.97 1014.96 1014.86 1014.76 1014.69 1014.73 1014.87 1015.10 1015.37 1015.63 1015.83 1015.93 1015.93 1015.86 1015.76 1015.68 1015.65 1015.69 1015.82 1016.01
1007.92 1009.22 1010.67 1012.06 1013.17 1013.86 1014.07 1013.85 1013.33 1012.70 1012.17 1011.88 1011.93 1012.30 1012.90 1013.60 1014.25 1014.70 1014.92 1014.89 1014.69 1014.43 1014.20 1014.09 1014.13 1014.30 1014.55 1014.80 1014.98 1015.06 1015.03 1014.94 1014.84 1014.79 1014.84 1014.98 1015.22 1015.49 1015.74 1015.93 1016.03 1016.03 1015.97 1015.87 1015.79 1015.77 1015.82 1015.95 1016.14
1008.58 1010.02 1011.52 1012.87 1013.87 1014.39 1014.40 1013.97 1013.26 1012.48 1011.82 1011.44 1011.42 1011.74 1012.32 1013.01 1013.66 1014.15 1014.43 1014.48 1014.38 1014.22 1014.09 1014.05 1014.15 1014.36 1014.63 1014.88 1015.06 1015.14 1015.12 1015.04 1014.96 1014.92 1014.96 1015.10 1015.31 1015.56 1015.79 1015.96 1016.05 1016.06 1016.01 1015.95 1015.90 1015.90 1015.98 1016.12 1016.32
1009.39 1010.89 1012.38 1013.64 1014.49 1014.83 1014.66 1014.07 1013.24 1012.35 1011.62 1011.20 1011.13 1011.41 1011.94 1012.60 1013.23 1013.73 1014.03 1014.14 1014.12 1014.04 1013.99 1014.03 1014.18 1014.42 1014.70 1014.95 1015.14 1015.23 1015.22 1015.16 1015.09 1015.06 1015.10 1015.22 1015.39 1015.60 1015.79 1015.94 1016.02 1016.05 1016.04 1016.01 1016.02 1016.06 1016.17 1016.33 1016.54
1010.25 1011.74 1013.13 1014.25 1014.93 1015.11 1014.81 1014.13 1013.24 1012.34 1011.62 1011.18 1011.10 1011.35 1011.83 1012.43 1013.01 1013.48 1013.78 1013.93 1013.97 1013.96 1013.98 1014.07 1014.26 1014.51 1014.79 1015.04 1015.22 1015.31 1015.32 1015.29 1015.24 1015.22 1015.25 1015.35 1015.49 1015.65 1015.80 1015.93 1016.00 1016.05 1016.07 1016.10 1016.16 1016.25 1016.40 1016.58 1016.80
1011.04 1012.42 1013.65 1014.58 1015.09 1015.14 1014.77 1014.08 1013.24 1012.41 1011.76 1011.38 1011.32 1011.54 1011.97 1012.49 1013.01 1013.43 1013.72 1013.89 1013.97 1014.02 1014.09 1014.22 1014.42 1014.67 1014.92 1015.14 1015.30 1015.39 1015.41 1015.39 1015.37 1015.37 1015.41 1015.50 1015.62 1015.75 1015.87 1015.97 1016.04 1016.10 1016.16 1016.24 1016.34 1016.48 1016.65 1016.85 1017.07
1011.62 1012.81 1013.82 1014.54 1014.89 1014.86 1014.48 1013.87 1013.16 1012.49 1011.98 1011.71 1011.69 1011.91 1012.28 1012.73 1013.16 1013.53 1013.80 1013.98 1014.10 1014.20 1014.32 1014.47 1014.67 1014.89 1015.09 1015.26 1015.38 1015.45 1015.47 1015.47 1015.48 1015.52 1015.58 1015.68 1015.80 1015.92 1016.02 1016.11 1016.18 1016.25 1016.34 1016.44 1016.58 1016.74 1016.92 1017.12 1017.33
1011.92 1012.86 1013.62 1014.12 1014.33 1014.25 1013.93 1013.46 1012.95 1012.49 1012.17 1012.05 1012.11 1012.33 1012.66 1013.03 1013.39 1013.70 1013.95 1014.15 1014.30 1014.45 1014.61 1014.79 1014.97 1015.14 1015.29 1015.40 1015.46 1015.49 1015.50 1015.52 1015.57 1015.65 1015.76 1015.90 1016.03 1016.16 1016.27 1016.36 1016.44 1016.51 1016.60 1016.72 1016.86 1017.02 1017.20 1017.39 1017.58
1011.93 1012.59 1013.08 1013.37 1013.46 1013.36 1013.14 1012.86 1012.58 1012.37 1012.28 1012.31 1012.45 1012.69 1012.99 1013.29 1013.59 1013.86 1014.09 1014.31 1014.51 1014.71 1014.92 1015.11 1015.27 1015.40 1015.49 1015.52 1015.53 1015.52 1015.52 1015.55 1015.64 1015.77 1015.94 1016.13 1016.32 1016.48 1016.61 1016.71 1016.78 1016.86 1016.94 1017.05 1017.18 1017.32 1017.48 1017.64 1017.80
1011.74 1012.11 1012.34 1012.43 1012.42 1012.33 1012.22 1012.13 1012.10 1012.14 1012.25 1012.44 1012.67 1012.92 1013.19 1013.44 1013.68 1013.91 1014.15 1014.39 1014.65 1014.91 1015.16 1015.38 1015.54 1015.64 1015.67 1015.64 1015.59 1015.54 1015.53 1015.58 1015.70 1015.89 1016.12 1016.37 1016.61 1016.82 1016.98 1017.10 1017.18 1017.25 1017.33 1017.41 1017.51 1017.62 1017.74 1017.87 1018.00
1011.47 1011.59 1011.58 1011.50 1011.40 1011.33 1011.32 1011.41 1011.58 1011.83 1012.12 1012.43 1012.73 1013.00 1013.23 1013.43 1013.62 1013.83 1014.08 1014.35 1014.67 1014.99 1015.30 1015.55 1015.73 1015.82 1015.82 1015.75 1015.66 1015.59 1015.56 1015.62 1015.77 1016.00 1016.29 1016.59 1016.89 1017.14 1017.34 1017.48 1017.58 1017.64 1017.70 1017.75 1017.82 1017.90 1017.99 1018.09 1018.21
1011.29 1011.19 1010.99 1010.77 1010.59 1010.53 1010.60 1010.81 1011.14 1011.53 1011.95 1012.34 1012.67 1012.93 1013.12 1013.28 1013.44 1013.63 1013.88 1014.19 1014.55 1014.94 1015.30 1015.61 1015.82 1015.92 1015.93 1015.86 1015.76 1015.67 1015.64 1015.70 1015.86 1016.12 1016.43 1016.77 1017.10 1017.40 1017.63 1017.79 1017.90 1017.97 1018.01 1018.05 1018.10 1018.15 1018.22 1018.31 1018.42
1011.31 1011.06 1010.71 1010.38 1010.14 1010.07 1010.18 1010.46 1010.86 1011.34 1011.81 1012.22 1012.55 1012.78 1012.94 1013.05 1013.17 1013.35 1013.60 1013.93 1014.33 1014.76 1015.17 1015.54 1015.80 1015.95 1015.99 1015.96 1015.88 1015.80 1015.78 1015.84 1015.99 1016.24 1016.55 1016.89 1017.23 1017.54 1017.79 1017.98 1018.10 1018.18 1018.23 1018.27 1018.31 1018.36 1018.43 1018.53 1018.64
1011.60 1011.24 1010.80 1010.40 1010.12 1010.02 1010.12 1010.41 1010.82 1011.29 1011.75 1012.14 1012.43 1012.61 1012.72 1012.80 1012.89 1013.05 1013.28 1013.62 1014.03 1014.49 1014.94 1015.36 1015.68 1015.90 1016.02 1016.05 1016.03 1016.00 1015.99 1016.04 1016.17 1016.38 1016.65 1016.95 1017.27 1017.56 1017.82 1018.02 1018.17 1018.27 1018.34 1018.39 1018.45 1018.52 1018.62 1018.74 1018.89
1012.11 1011.70 1011.21 1010.77 1010.46 1010.33 1010.40 1010.64 1010.99 1011.40 1011.79 1012.11 1012.33 1012.47 1012.54 1012.59 1012.66 1012.79 1013.01 1013.33 1013.73 1014.18 1014.65 1015.10 1015.49 1015.79 1016.01 1016.14 1016.20 1016.23 1016.25 1016.30 1016.39 1016.54 1016.74 1016.97 1017.23 1017.49 1017.73 1017.94 1018.11 1018.24 1018.35 1018.44 1018.54 1018.65 1018.79 1018.95 1019.13
1012.72 1012.29 1011.80 1011.36 1011.04 1010.88 1010.90 1011.06 1011.32 1011.62 1011.90 1012.12 1012.28 1012.37 1012.41 1012.45 1012.51 1012.63 1012.83 1013.11 1013.47 1013.89 1014.35 1014.81 1015.25 1015.64 1015.96 1016.20 1016.37 1016.48 1016.55 1016.60 1016.65 1016.73 1016.83 1016.98 1017.16 1017.36 1017.58 1017.78 1017.98 1018.15 1018.30 1018.45 1018.59 1018.76 1018.94 1019.15 1019.38
1013.28 1012.87 1012.42 1012.02 1011.72 1011.55 1011.51 1011.58 1011.72 1011.88 1012.03 1012.15 1012.23 1012.29 1012.33 1012.38 1012.45 1012.58 1012.75 1012.99 1013.30 1013.66 1014.08 1014.53 1014.99 1015.45 1015.87 1016.23 1016.52 1016.73 1016.86 1016.92 1016.93 1016.94 1016.95 1017.00 1017.09 1017.23 1017.41 1017.61 1017.83 1018.04 1018.24 1018.44 1018.64 1018.85 1019.09 1019.34 1019.61
1013.65 1013.30 1012.93 1012.61 1012.37 1012.22 1012.15 1012.12 1012.13 1012.14 1012.15 1012.16 1012.18 1012.22 1012.28 1012.36 1012.48 1012.62 1012.80 1013.00 1013.24 1013.52 1013.87 1014.28 1014.74 1015.24 1015.75 1016.22 1016.63 1016.93 1017.13 1017.21 1017.21 1017.16 1017.09 1017.05 1017.06 1017.13 1017.28 1017.48 1017.71 1017.96 1018.21 1018.45 1018.70 1018.96 1019.22 1019.51 1019.80
1013.78 1013.52 1013.28 1013.10 1012.96 1012.86 1012.76 1012.65 1012.53 1012.38 1012.25 1012.15 1012.11 1012.13 1012.23 1012.38 1012.57 1012.76 1012.94 1013.12 1013.29 1013.50 1013.76 1014.10 1014.53 1015.04 1015.60 1016.16 1016.66 1017.06 1017.33 1017.45 1017.45 1017.36 1017.23 1017.12 1017.06 1017.09 1017.20 1017.40 1017.65 1017.93 1018.21 1018.49 1018.77 1019.05 1019.34 1019.64 1019.94
1013.70 1013.58 1013.52 1013.51 1013.51 1013.48 1013.39 1013.21 1012.95 1012.64 1012.36 1012.13 1012.02 1012.04 1012.18 1012.41 1012.69 1012.95 1013.17 1013.33 1013.46 1013.58 1013.74 1014.00 1014.37 1014.86 1015.43 1016.04 1016.61 1017.09 1017.42 1017.59 1017.60 1017.50 1017.34 1017.19 1017.09 1017.09 1017.19 1017.38 1017.64 1017.94 1018.25 1018.55 1018.84 1019.12 1019.41 1019.70 1020.01
1013.51 1013.57 1013.73 1013.94 1014.12 1014.20 1014.11 1013.85 1013.45 1012.98 1012.52 1012.15 1011.96 1011.96 1012.14 1012.45 1012.82 1013.17 1013.44 1013.62 1013.71 1013.76 1013.83 1013.98 1014.27 1014.70 1015.25 1015.87 1016.48 1017.01 1017.39 1017.61 1017.65 1017.55 1017.39 1017.22 1017.11 1017.09 1017.19 1017.39 1017.66 1017.97 1018.28 1018.58 1018.86 1019.13 1019.40 1019.68 1019.96
1013.36 1013.65 1014.08 1014.53 1014.90 1015.08 1015.00 1014.66 1014.11 1013.44 1012.78 1012.26 1011.95 1011.91 1012.10 1012.48 1012.94 1013.38 1013.72 1013.93 1014.00 1014.00 1013.98 1014.03 1014.21 1014.56 1015.05 1015.64 1016.26 1016.81 1017.23 1017.48 1017.55 1017.49 1017.34 1017.19 1017.08 1017.07 1017.17 1017.37 1017.64 1017.95 1018.26 1018.55 1018.81 1019.05 1019.29 1019.53 1019.80
1013.37 1013.93 1014.63 1015.34 1015.89 1016.16 1016.08 1015.64 1014.92 1014.04 1013.17 1012.46 1012.02 1011.90 1012.08 1012.49 1013.03 1013.55 1013.97 1014.22 1014.30 1014.25 1014.16 1014.11 1014.20 1014.44 1014.86 1015.39 1015.97 1016.51 1016.95 1017.22 1017.33 1017.30 1017.19 1017.05 1016.97 1016.97 1017.08 1017.29 1017.56 1017.87 1018.16 1018.43 1018.65 1018.86 1019.05 1019.27 1019.51
1013.61 1014.44 1015.41 1016.34 1017.04 1017.38 1017.28 1016.73 1015.83 1014.74 1013.65 1012.74 1012.14 1011.92 1012.07 1012.49 1013.07 1013.66 1014.14 1014.44 1014.54 1014.47 1014.33 1014.21 1014.20 1014.34 1014.66 1015.12 1015.64 1016.16 1016.59 1016.87 1017.01 1017.01 1016.93 1016.83 1016.77 1016.80 1016.92 1017.13 1017.40 1017.69 1017.96 1018.20 1018.39 1018.55 1018.71 1018.89 1019.10
1014.05 1015.12 1016.31 1017.42 1018.23 1018.60 1018.44 1017.78 1016.71 1015.42 1014.13 1013.03 1012.28 1011.96 1012.04 1012.46 1013.06 1013.70 1014.23 1014.57 1014.69 1014.63 1014.46 1014.28 1014.19 1014.26 1014.49 1014.86 1015.32 1015.79 1016.19 1016.48 1016.63 1016.66 1016.62 1016.55 1016.52 1016.56 1016.70 1016.91 1017.17 1017.44 1017.68 1017.89 1018.04 1018.17 1018.28 1018.43 1018.61
1014.57 1015.83 1017.17 1018.38 1019.24 1019.60 1019.38 1018.60 1017.40 1015.95 1014.50 1013.26 1012.39 1011.97 1012.00 1012.38 1012.99 1013.65 1014.21 1014.59 1014.75 1014.70 1014.53 1014.32 1014.19 1014.18 1014.34 1014.64 1015.04 1015.46 1015.83 1016.11 1016.26 1016.31 1016.30 1016.26 1016.25 1016.31 1016.45 1016.66 1016.91 1017.15 1017.37 1017.54 1017.66 1017.75 1017.83 1017.94 1018.09
1015.03 1016.39 1017.80 1019.03 1019.87 1020.18 1019.89 1019.03 1017.73 1016.19 1014.66 1013.34 1012.41 1011.93 1011.92 1012.28 1012.87 1013.53 1014.12 1014.52 1014.71 1014.69 1014.53 1014.33 1014.18 1014.14 1014.25 1014.49 1014.83 1015.20 1015.54 1015.80 1015.95 1016.01 1016.02 1016.00 1016.02 1016.09 1016.23 1016.43 1016.66 1016.89 1017.08 1017.22 1017.31 1017.36 1017.41 1017.48 1017.61
1015.30 1016.66 1018.04 1019.21 1019.98 1020.21 1019.85 1018.94 1017.62 1016.08 1014.55 1013.24 1012.31 1011.83 1011.81 1012.15 1012.73 1013.38 1013.96 1014.38 1014.60 1014.61 1014.49 1014.32 1014.17 1014.13 1014.22 1014.42 1014.72 1015.04 1015.35 1015.58 1015.73 1015.80 1015.81 1015.82 1015.85 1015.93 1016.07 1016.26 1016.48 1016.69 1016.86 1016.97 1017.04 1017.06 1017.08 1017.11 1017.20
1015.31 1016.58 1017.83 1018.86 1019.50 1019.64 1019.23 1018.32 1017.05 1015.59 1014.16 1012.95 1012.10 1011.68 1011.68 1012.02 1012.58 1013.21 1013.79 1014.21 1014.44 1014.50 1014.42 1014.29 1014.19 1014.16 1014.25 1014.44 1014.70 1014.99 1015.26 1015.47 1015.60 1015.66 1015.69 1015.70 1015.75 1015.84 1015.99 1016.18 1016.39 1016.58 1016.74 1016.84 1016.88 1016.88 1016.87 1016.88 1016.93
1015.10 1016.20 1017.25 1018.08 1018.56 1018.59 1018.15 1017.29 1016.12 1014.82 1013.56 1012.53 1011.82 1011.50 1011.55 1011.90 1012.45 1013.05 1013.60 1014.02 1014.27 1014.36 1014.34 1014.27 1014.22 1014.23 1014.33 1014.51 1014.75 1015.01 1015.24 1015.42 1015.53 1015.59 1015.61 1015.64 1015.70 1015.81 1015.97 1016.16 1016.37 1016.56 1016.71 1016.80 1016.84 1016.83 1016.80 1016.78 1016.80
Thickness
5855 5854 5850 5836 5808 5784 5780 5793 5804 5803 5803 5811 5814 5807 5796 5786 5774 5761 5781 5788 5785 5782 5780 5779 5777 5776 5775 5774 5774 5773 5772 5772 5771 5771 5770 5769 5768 5768 5767 5766 5765 5764 5763 5762 5761 5760 5760 5759 5758
5860 5857 5844 5823 5789 5765 5776 5798 5801 5806 5812 5818 5815 5808 5797 5786 5790 5784 5784 5786 5785 5783 5780 5779 5777 5776 5775 5774 5773 5772 5771 5771 5770 5769 5769 5768 5767 5766 5765 5765 5764 5763 5762 5761 5760 5759 5759 5757 5756
5864 5858 5832 5808 5786 5775 5783 5803 5808 5815 5822 5821 5812 5809 5799 5789 5790 5787 5789 5788 5785 5782 5780 5779 5777 5775 5774 5773 5772 5771 5771 5770 5769 5768 5767 5767 5766 5765 5764 5763 5762 5761 5760 5759 5758 5758 5757 5756 5755
5861 5844 5826 5800 5789 5802 5808 5813 5819 5815 5818 5820 5813 5801 5802 5806 5801 5795 5792 5789 5784 5781 5779 5778 5776 5775 5773 5772 5771 5770 5769 5768 5768 5767 5766 5765 5764 5764 5763 5762 5761 5760 5759 5758 5757 5756 5755 5754 5753
5857 5830 5805 5790 5798 5814 5824 5829 5828 5816 5812 5812 5811 5795 5792 5805 5806 5799 5793 5789 5784 5781 5779 5777 5775 5774 5772 5771 5770 5769 5768 5767 5766 5765 5765 5764 5763 5763 5762 5760 5759 5758 5757 5756 5755 5754 5754 5753 5752
5840 5821 5790 5783 5801 5819 5828 5834 5830 5818 5812 5812 5808 5795 5791 5804 5802 5797 5794 5789 5786 5782 5779 5776 5774 5773 5771 5770 5769 5768 5767 5766 5765 5764 5763 5762 5762 5761 5760 5759 5758 5757 5756 5755 5754 5753 5752 5752 5751
5832 5812 5795 5797 5803 5814 5828 5839 5830 5819 5813 5814 5815 5795 5791 5798 5803 5800 5794 5790 5785 5782 5779 5776 5774 5772 5770 5769 5768 5767 5766 5764 5763 5762 5761 5761 5760 5759 5758 5757 5757 5755 5755 5754 5752 5751 5751 5751 5750
5846 5818 5803 5803 5806 5814 5835 5841 5838 5830 5821 5828 5822 5799 5790 5800 5805 5800 5793 5788 5784 5781 5778 5775 5773 5771 5769 5768 5767 5766 5764 5763 5762 5761 5760 5759 5758 5757 5756 5755 5755 5754 5753 5752 5751 5751 5750 5750 5749
5853 5812 5798 5809 5816 5823 5840 5838 5839 5843 5831 5826 5826 5818 5814 5812 5806 5796 5787 5782 5779 5777 5776 5774 5771 5769 5768 5766 5765 5764 5762 5761 5760 5759 5758 5757 5756 5756 5755 5754 5753 5753 5752 5752 5751 5750 5750 5749 5748
5841 5807 5818 5838 5842 5839 5844 5842 5839 5831 5821 5817 5817 5819 5818 5811 5803 5793 5786 5780 5777 5775 5774 5773 5771 5769 5766 5765 5763 5762 5760 5759 5758 5757 5757 5756 5755 5754 5753 5753 5752 5752 5751 5751 5750 5750 5749 5748 5748
5847 5830 5843 5853 5858 5855 5847 5844 5845 5829 5814 5818 5816 5814 5813 5808 5800 5794 5790 5786 5783 5779 5776 5774 5771 5769 5767 5765 5762 5760 5759 5757 5756 5755 5755 5754 5753 5753 5752 5752 5751 5751 5750 5750 5750 5749 5749 5748 5747
5852 5852 5857 5858 5865 5859 5851 5847 5840 5836 5830 5837 5833 5826 5817 5807 5801 5797 5792 5789 5786 5782 5779 5776 5772 5769 5767 5765 5762 5760 5758 5756 5755 5755 5754 5754 5753 5752 5751 5750 5750 5749 5749 5749 5749 5749 5748 5748 5747
5851 5853 5861 5864 5863 5863 5857 5847 5843 5838 5844 5841 5834 5826 5818 5811 5806 5802 5799 5794 5789 5784 5780 5778 5775 5771 5768 5765 5762 5760 5759 5757 5756 5755 5754 5754 5753 5751 5750 5749 5749 5749 5748 5748 5748 5748 5747 5747 5746
5853 5855 5857 5861 5861 5861 5851 5845 5841 5836 5843 5836 5829 5822 5819 5815 5810 5803 5798 5793 5789 5785 5782 5780 5776 5772 5768 5765 5762 5761 5760 5759 5758 5757 5755 5754 5753 5752 5750 5749 5748 5748 5748 5748 5747 5747 5747 5746 5746
5859 5847 5847 5855 5857 5856 5850 5829 5834 5840 5840 5831 5826 5823 5820 5817 5813 5806 5802 5797 5793 5788 5785 5781 5778 5774 5769 5766 5764 5763 5761 5760 5758 5758 5756 5755 5754 5753 5751 5750 5748 5748 5748 5748 5747 5747 5746 5746 5745
5845 5832 5821 5844 5854 5854 5838 5811 5833 5843 5837 5826 5825 5823 5819 5816 5815 5811 5807 5801 5796 5791 5786 5783 5781 5775 5771 5768 5766 5763 5762 5760 5759 5758 5756 5755 5754 5753 5752 5750 5749 5749 5749 5748 5747 5746 5745 5744 5743
5818 5808 5814 5833 5855 5850 5835 5817 5833 5842 5836 5826 5822 5820 5817 5813 5813 5813 5809 5804 5799 5794 5789 5783 5780 5776 5772 5769 5767 5764 5762 5760 5758 5758 5756 5755 5754 5753 5752 5751 5750 5749 5749 5748 5748 5746 5745 5742 5742
5801 5810 5817 5825 5845 5845 5830 5824 5834 5839 5835 5827 5823 5818 5813 5811 5813 5814 5811 5806 5801 5796 5791 5785 5780 5776 5773 5770 5767 5763 5761 5759 5758 5758 5757 5755 5754 5754 5752 5751 5751 5750 5748 5747 5747 5745 5744 5743 5742
5820 5817 5817 5831 5848 5839 5828 5826 5831 5834 5831 5825 5821 5817 5811 5810 5813 5814 5810 5806 5800 5795 5791 5786 5780 5776 5773 5768 5765 5761 5758 5758 5757 5757 5756 5756 5755 5754 5753 5752 5751 5749 5748 5746 5746 5744 5742 5741 5741
5825 5816 5817 5831 5846 5836 5823 5821 5829 5832 5831 5830 5826 5821 5818 5813 5810 5810 5808 5805 5800 5795 5791 5786 5782 5778 5774 5771 5767 5764 5761 5759 5758 5757 5755 5755 5754 5754 5753 5752 5750 5749 5747 5746 5745 5743 5740 5739 5740
5822 5818 5819 5822 5832 5832 5821 5806 5815 5826 5831 5831 5829 5826 5823 5817 5811 5810 5808 5804 5800 5795 5792 5788 5783 5779 5775 5772 5768 5764 5760 5758 5756 5754 5754 5755 5754 5754 5753 5752 5750 5749 5748 5746 5745 5743 5740 5736 5737
5812 5833 5833 5827 5809 5795 5807 5777 5800 5814 5818 5823 5824 5822 5820 5819 5816 5811 5808 5803 5799 5797 5794 5790 5785 5780 5776 5773 5768 5762 5757 5754 5754 5754 5754 5754 5754 5753 5752 5751 5750 5749 5747 5746 5745 5745 5742 5738 5734
5828 5841 5834 5825 5807 5791 5795 5781 5787 5808 5806 5814 5821 5822 5821 5820 5817 5812 5809 5805 5802 5798 5794 5790 5785 5780 5777 5773 5769 5764 5759 5757 5756 5755 5754 5753 5753 5753 5752 5750 5749 5748 5747 5746 5745 5744 5743 5741 5737
5843 5829 5816 5801 5786 5769 5785 5779 5779 5797 5809 5816 5822 5823 5822 5820 5817 5812 5809 5804 5800 5798 5794 5789 5784 5780 5777 5773 5769 5765 5760 5757 5754 5753 5751 5751 5751 5751 5750 5750 5749 5747 5746 5745 5745 5744 5742 5741 5739
5826 5790 5763 5762 5750 5758 5782 5779 5781 5812 5826 5827 5825 5824 5824 5821 5816 5810 5805 5801 5798 5796 5792 5789 5784 5779 5777 5773 5769 5765 5762 5758 5755 5753 5751 5750 5749 5748 5749 5749 5748 5746 5745 5745 5744 5742 5741 5740 5738
5813 5790 5757 5747 5745 5755 5775 5773 5794 5826 5833 5834 5832 5829 5826 5820 5816 5812 5808 5804 5800 5796 5793 5789 5784 5779 5776 5773 5769 5766 5763 5760 5757 5755 5753 5751 5750 5749 5749 5748 5746 5745 5744 5743 5742 5741 5740 5739 5737
5810 5795 5790 5765 5760 5751 5760 5780 5802 5823 5822 5823 5823 5823 5821 5820 5817 5813 5809 5805 5801 5797 5794 5790 5785 5780 5777 5774 5770 5767 5764 5761 5758 5757 5755 5752 5750 5749 5748 5746 5745 5744 5743 5742 5740 5739 5738 5736 5735
5823 5809 5777 5761 5744 5738 5755 5767 5776 5799 5808 5815 5816 5817 5819 5819 5817 5813 5810 5806 5803 5799 5795 5791 5786 5781 5778 5774 5771 5767 5765 5762 5759 5756 5753 5751 5750 5748 5746 5745 5743 5742 5741 5739 5737 5736 5735 5733 5731
5810 5804 5782 5760 5754 5739 5738 5759 5806 5807 5814 5815 5817 5819 5819 5818 5816 5813 5810 5807 5803 5799 5794 5790 5785 5781 5777 5774 5770 5767 5764 5761 5759 5755 5753 5751 5749 5747 5744 5742 5741 5740 5738 5737 5735 5733 5731 5729 5728
5814 5803 5783 5762 5757 5750 5743 5763 5822 5821 5824 5822 5820 5822 5821 5820 5818 5815 5811 5807 5802 5797 5793 5789 5785 5781 5777 5774 5769 5766 5763 5760 5757 5754 5751 5749 5747 5745 5743 5741 5739 5737 5735 5734 5732 5730 5728 5725 5723